This is the latest recevied weather packets stored in our database for station/object G4KVI. If no packets are shown the sender has not sent any weather packets the latest 10 day(s).
| Time | Temp. | Humidity | Pressure | Rain* | Wind** | Luminosity | Snow |
|---|---|---|---|---|---|---|---|
| 1777401304 | 13.33° C | 49% | 1025.7 hPa | 0 mm | - | 30 W/m² | - |
| 1777401004 | 13.33° C | 50% | 1025.8 hPa | 0 mm | - | 34 W/m² | - |
| 1777400704 | 13.33° C | 50% | 1025.7 hPa | 0 mm | - | 41 W/m² | - |
| 1777400404 | 13.89° C | 50% | 1025.8 hPa | 0 mm | - | 59 W/m² | - |
| 1777400104 | 13.89° C | 49% | 1025.5 hPa | 0 mm | - | 68 W/m² | - |
| 1777399804 | 13.89° C | 50% | 1025.3 hPa | 0 mm | - | 95 W/m² | - |
| 1777399504 | 13.89° C | 51% | 1025.7 hPa | 0 mm | - | 106 W/m² | - |
| 1777399205 | 13.89° C | 51% | 1025.8 hPa | 0 mm | - | 107 W/m² | - |
| 1777398904 | 13.89° C | 51% | 1025.4 hPa | 0 mm | - | 102 W/m² | - |
| 1777398604 | 13.89° C | 54% | 1025.4 hPa | 0 mm | - | 100 W/m² | - |
| 1777398304 | 13.89° C | 54% | 1025.6 hPa | 0 mm | - | 96 W/m² | - |
| 1777398004 | 13.89° C | 55% | 1025.4 hPa | 0 mm | - | 145 W/m² | - |
| 1777397704 | 13.89° C | 56% | 1025.3 hPa | 0 mm | - | 155 W/m² | - |
| 1777397404 | 13.89° C | 55% | 1025.5 hPa | 0 mm | - | 135 W/m² | - |
| 1777397104 | 13.89° C | 55% | 1025.6 hPa | 0 mm | - | 176 W/m² | - |
| 1777396804 | 13.89° C | 56% | 1025.5 hPa | 0 mm | - | 182 W/m² | - |
| 1777396504 | 13.89° C | 57% | 1025.5 hPa | 0 mm | - | 121 W/m² | - |
| 1777396204 | 13.89° C | 57% | 1025.8 hPa | 0 mm | - | 226 W/m² | - |
| 1777395904 | 13.33° C | 58% | 1025.5 hPa | 0 mm | - | 255 W/m² | - |
| 1777395604 | 13.33° C | 57% | 1025.7 hPa | 0 mm | - | 119 W/m² | - |
| 1777395304 | 13.89° C | 56% | 1025.6 hPa | 0 mm | - | 119 W/m² | - |
| 1777395004 | 13.89° C | 57% | 1025.7 hPa | 0 mm | - | 168 W/m² | - |
| 1777394704 | 13.89° C | 58% | 1025.6 hPa | 0 mm | - | 222 W/m² | - |
| 1777394404 | 13.89° C | 58% | 1025.7 hPa | 0 mm | - | 236 W/m² | - |
| 1777394104 | 13.89° C | 57% | 1025.6 hPa | 0 mm | - | 128 W/m² | - |
* Rain latest hour (hover to see other rain measurements)
** Current wind speed in m/s (hover to see current wind gust speed)